Flag for Myanmar Weather past 2 weeks in Yangon, Myanmar

Now
79 °F

Mostly cloudy.


Feels Like: 83 °F
Forecast: 75 / 85 °F
Wind: 6 mph from Southwest

Location: Rangoon Airport

Current Time: Aug 2, 2014 at 9:20:15 AM

Latest Report: Aug 2, 2014 at 8:30 AM


Visibility: 4 mi

Pressure: 29.71 "Hg

Humidity: 94%

Dew point: 77 °F

Location of YangonLocation

Historic Weather in Yangon — Graph

°F

Yangon temperature yesterday

Maximum temperature yesterday: 86 °F (at 1:00 PM)
Minimum temperature yesterday: 77 °F (at 4:30 AM)
Average temperature yesterday: 80 °F

Past Weeks' High & Low Weather Summary

 TemperatureHumidityPressure
High88 °F (Jul 18, 3:00 PM)100% (Jul 18, 7:30 AM)32.49 "Hg (Jul 18, 7:30 AM)
Low73 °F (Jul 21, 5:30 AM)70% (Jul 18, 3:00 PM)29.62 "Hg (Jul 18, 3:00 PM)
Average79 °F93%29.73 "Hg
* Reported Jul 18 7:30 AM — Aug 2 8:00 AM, Yangon, Weather by CustomWeather, © 2014

Note: Actual official high and low records may vary slightly from our data, if they occured in-between our weather recording intervals... More about our weather records

Advertising

Yangon weather history for previous 24 hours

 ConditionsComfort  
Time TempWeatherWind HumidityBarometerVisibility
8:00 AM
Aug 2
79 °FMostly cloudy.8 mph94%29.71 "Hg4 mi
7:30 AM77 °FMostly cloudy.6 mph89%29.71 "Hg4 mi
7:00 AM77 °FMostly cloudy.6 mph100%29.68 "Hg4 mi
6:30 AM77 °FDrizzle. Mostly cloudy.3 mph100%29.68 "Hg4 mi
6:00 AM77 °FRain. Mostly cloudy.5 mph100%29.68 "Hg2 mi
5:30 AM77 °FPassing clouds.5 mph89%29.68 "Hg4 mi
5:00 AM77 °FPassing clouds.5 mph89%29.68 "Hg4 mi
4:30 AM77 °FPassing clouds.6 mph89%29.68 "Hg4 mi
1:00 AM77 °FPassing clouds.6 mph89%29.71 "Hg4 mi
12:30 AM77 °FPassing clouds.6 mph89%29.71 "Hg4 mi
12:00 AM77 °FPassing clouds.7 mph89%29.74 "Hg4 mi
11:30 PM
Aug 1
77 °FPassing clouds.6 mph89%29.74 "Hg4 mi
11:00 PM77 °FPassing clouds.8 mph89%29.74 "Hg4 mi
10:30 PM77 °FPassing clouds.6 mph89%29.74 "Hg4 mi
10:00 PM77 °FPassing clouds.7 mph89%29.74 "Hg4 mi
9:30 PM77 °FPassing clouds.6 mph100%29.74 "Hg4 mi
9:00 PM79 °FMostly cloudy.6 mph94%29.71 "Hg4 mi
8:00 PM79 °FMostly cloudy.6 mph100%29.71 "Hg4 mi
7:30 PM79 °FMostly cloudy.6 mph100%29.71 "Hg4 mi
7:00 PM79 °FDrizzle. Mostly cloudy.7 mph100%29.68 "Hg4 mi
6:30 PM79 °FLight rain. Mostly cloudy.9 mph100%29.68 "Hg3 mi
6:00 PM79 °FLight rain. Mostly cloudy.7 mph100%29.65 "Hg3 mi
5:30 PM79 °FDrizzle. Mostly cloudy.7 mph100%29.65 "Hg3 mi
5:00 PM79 °FRain. Mostly cloudy.9 mph100%29.65 "Hg2 mi
4:30 PM81 °FDrizzle. Mostly cloudy.8 mph94%29.68 "Hg4 mi
4:00 PM81 °FDrizzle. Mostly cloudy.6 mph94%29.65 "Hg4 mi
3:30 PM81 °FMostly cloudy.9 mph94%29.65 "Hg4 mi
3:00 PM79 °FDrizzle. Mostly cloudy.8 mph94%29.68 "Hg4 mi
2:30 PM81 °FRain. Mostly cloudy.17 mph94%29.68 "Hg2 mi
2:00 PM86 °FMostly cloudy.6 mph79%29.68 "Hg5 mi
1:30 PM84 °FDrizzle. Mostly cloudy.8 mph84%29.71 "Hg4 mi
1:00 PM86 °FMostly cloudy.8 mph75%29.71 "Hg4 mi
12:30 PM84 °FMostly cloudy.7 mph84%29.71 "Hg4 mi
12:00 PM84 °FMostly cloudy.7 mph84%29.71 "Hg4 mi
11:30 AM82 °FMostly cloudy.7 mph89%29.74 "Hg4 mi
11:00 AM82 °FMostly cloudy.7 mph89%29.74 "Hg4 mi
10:30 AM81 °FMostly cloudy.5 mph94%29.77 "Hg4 mi
10:00 AM81 °FMostly cloudy.5 mph94%29.77 "Hg4 mi
9:30 AM81 °FMostly cloudy.5 mph94%29.77 "Hg4 mi
9:00 AM79 °FMostly cloudy.5 mph94%29.74 "Hg4 mi
Weather by CustomWeather, © 2014

See weather overviewHow to use our weather pages